Flag for El Salvador Weather past 2 weeks in San Salvador, El Salvador

Now
72 °F

Lots of rain. Passing clouds.


Feels Like: 67 °F
Forecast: 70 / 89 °F
Wind: 5 mph from North

Location: San Salvador / Ilopango


UV Index: 10 (Very high)

Visibility: 2 mi


Pressure: 30.01 "Hg

Humidity: 94%

Dew point: 70 °F

Location of San SalvadorLocation

Historic Weather in San Salvador

°F

San Salvador temperature yesterday

Maximum temperature yesterday: 88 °F (at 1:50 PM)
Minimum temperature yesterday: 70 °F (at 6:50 AM)
Average temperature yesterday: 79 °F

Past Weeks' High & Low Weather Summary

 TemperatureHumidityPressure
High95 °F (Apr 8, 12:50 PM)100% (Apr 4, 5:50 AM)30.09 "Hg (Apr 4, 5:50 AM)
Low64 °F (Apr 15, 5:50 AM)36% (Apr 9, 1:50 PM)29.86 "Hg (Apr 5, 2:50 PM)
Average80 °F70%29.96 "Hg
* Reported Apr 3 9:50 PM — Apr 18 9:50 PM, San Salvador, Weather by CustomWeather, © 2014

Note: Actual official high and low records may vary slightly from our data, if they occured in-between our weather recording intervals... More about our weather records

Advertising

Historic Weather Conditions — Data for Previous 24 hours

 ConditionsComfort  
Time TempWeatherWind HumidityBarometerVisibility
9:50 PM
Apr 18
72 °FSprinkles. Passing clouds.6 mph94%29.98 "Hg4 mi
8:50 PM73 °FThunderstorms. Passing clouds.3 mph89%29.98 "Hg4 mi
7:50 PM75 °FPassing clouds.3 mph78%29.95 "Hg4 mi
6:50 PM77 °FRain showers. Passing clouds.7 mph74%29.95 "Hg3 mi
5:50 PM79 °FPassing clouds.9 mph79%29.95 "Hg4 mi
4:50 PM81 °FClear.14 mph74%29.95 "Hg4 mi
3:50 PM84 °FScattered clouds.16 mph70%29.92 "Hg5 mi
2:50 PM84 °FPartly sunny.14 mph66%29.92 "Hg5 mi
1:50 PM90 °FPartly sunny.12 mph52%29.95 "Hg5 mi
12:50 PM88 °FPartly sunny.9 mph59%29.98 "HgN/A
11:50 AM88 °FPartly sunny.2 mph62%29.98 "Hg5 mi
10:50 AM82 °FScattered clouds.5 mph70%29.98 "Hg5 mi
9:50 AM82 °FScattered clouds.2 mph74%29.98 "Hg5 mi
8:50 AM81 °FPassing clouds.6 mph79%29.98 "Hg5 mi
7:50 AM77 °FSnow. Smoke.2 mph83%29.98 "Hg5 mi
6:50 AM72 °FClear.2 mph94%29.98 "Hg4 mi
5:50 AM72 °FSunny.No wind94%29.98 "Hg10 mi
11:50 PM
Apr 17
75 °FClear.2 mph94%29.95 "Hg10 mi
Weather by CustomWeather, © 2014

See weather overview